Tracking 29892 objects as of 21-Nov-2024
HD Live streaming from Space Station
objects crossing your sky now

GALAXY 4R

Track GALAXY 4R now!
GALAXY 4R is classified as:


NORAD ID: 26298
Int'l Code: 2000-020A
Perigee: 35,878.7 km
Apogee: 35,952.1 km
Inclination: 12.0 °
Period: 1,442.3 minutes
Semi major axis: 42286 km
RCS: 26.0372 m2 (large)
Launch date: April 19, 2000
Source: United States (US)
Launch site: FRENCH GUIANA (FRGUI)

Television and Internet; 24 C-band, 24 Ku-band; North America.
Your satellite tracking list
Your tracking list is empty




NASA's NSSDC Master Catalog

Two Line Element Set (TLE):
1 26298U 00020A   24325.50131566 -.00000293  00000-0  00000-0 0  9997
2 26298  11.9957  28.1672 0008688 201.4381 328.4614  0.99839385 89892
Source of the keplerian elements: AFSPC